Location: Champignolles
(47.0543°N, 4.5663°E)
Time: 07:54:19
(UTC+00:00)

Envisat - Visible Passes

Search period start: 06 March 2021 00:00
Search period end: 16 March 2021 00:00
Orbit: 764 x 766 km, 98.1° (Epoch: 05 March)

Date Brightness Start Highest point End Pass type
(mag) Time Alt. Az. Time Alt. Az. Time Alt. Az.
06 Mar 4.6 04:48:58 10° NNE 04:53:41 37° E 04:58:22 10° SSE visible
07 Mar 5.8 04:13:03 10° NE 04:16:32 18° E 04:19:58 10° SE visible
08 Mar 3.6 05:14:08 10° NNE 05:19:11 62° E 05:24:13 10° S visible
08 Mar 6.8 18:16:06 10° W 18:16:32 10° W 18:17:00 10° W visible
09 Mar 5.1 04:37:43 10° NNE 04:42:10 30° E 04:46:36 10° SSE visible
10 Mar 6.0 04:02:12 10° NE 04:04:57 14° E 04:07:41 10° ESE visible
11 Mar 4.1 05:02:46 10° NNE 05:07:43 50° E 05:12:38 10° S visible
12 Mar 5.4 04:26:32 10° NE 04:30:39 24° E 04:34:44 10° SSE visible
13 Mar 6.2 03:51:47 10° ENE 03:53:22 11° E 03:54:57 10° ESE visible
14 Mar 4.5 04:51:27 10° NNE 04:56:14 40° E 05:00:59 10° SSE visible
15 Mar 5.8 04:15:27 10° NE 04:19:06 20° E 04:22:44 10° SE visible
